Zurück zum Katalog

COSMOS 1275 DEB

AktivPO
NORAD 15541·DEBRIS·🇷🇺 Russia

Gestartet Jun 4, 1981 von Plesetsk Cosmodrome

Loading…

Nächste Überflüge (nächste 24 Stunden)

TLE

AktuellSource: Space-Track

Epoche: Sep 13, 2026, 12:27 UTC

1 15541U 81053JZ  26256.51912381  .00000253  00000-0  20186-3 0  9994
2 15541  82.8852 269.4099 0033742 108.1167  45.3291 13.86892776133977

Verfolge COSMOS 1275 DEB in Echtzeit mit AllMySat

Download on the App Store